CAPE
187 145 126 460 576 1011 1031 864 693 719 546 256 191 119 21 122 127 149 135 250 775 1101 1145 1103 1104 1523 1629 1387 1264 1246 1134 1218 1290 1268 1403 1498 1413 1674 1522 1529 1472 1547 1488
411 165 239 343 355 908 1266 950 915 878 633 336 666 375 78 96 159 139 568 890 763 1091 1198 1198 1132 1548 1615 1486 1070 1017 1205 1283 1058 1105 1143 1207 1163 1344 1485 1534 1495 1484 1436
261 157 152 197 328 680 921 1168 988 792 337 469 482 421 198 357 249 252 936 1145 1244 1373 1210 1283 1264 1665 969 740 684 659 751 1130 1183 1022 1158 788 861 983 997 1398 1544 1512 1423
30 154 104 132 79 573 1057 1116 1070 1161 775 354 168 242 261 292 383 617 760 985 1281 1756 1429 1399 1274 1606 953 805 621 653 708 734 971 1030 919 674 837 1075 1083 1334 1560 1443 1231
36 30 12 52 106 526 849 941 1047 436 368 147 149 235 243 130 240 316 730 1117 1318 1422 1886 1471 1224 1139 1293 918 687 580 651 732 685 802 863 839 846 1073 848 1121 1406 1363 1246
0 69 59 38 137 100 776 933 743 456 233 246 122 143 83 285 137 176 207 879 1485 1580 1762 2212 1828 1283 869 906 724 812 838 628 704 623 626 704 753 1047 855 881 1267 1188 1060
218 68 0 13 102 81 828 1024 673 492 383 136 76 42 113 323 222 340 652 824 1127 1141 1583 1827 1725 1476 860 581 539 654 789 483 775 602 680 580 732 778 780 841 1028 981 886
554 305 191 95 6 646 1086 1147 593 401 347 360 615 172 396 406 524 451 541 393 549 867 486 1307 1462 1560 1090 808 750 544 411 438 798 731 710 592 737 750 675 893 955 724 542
643 145 160 50 4 340 1148 1582 1587 1170 1213 662 379 905 710 359 771 237 168 158 50 787 82 80 721 1530 1372 911 812 532 184 181 592 740 716 562 590 689 693 692 639 509 369
1101 539 89 28 6 642 1226 1659 2154 1769 1407 1351 897 157 465 599 603 81 76 130 143 487 151 203 229 763 1323 850 579 435 360 198 270 480 566 618 557 592 574 494 473 398 330
1296 770 397 506 710 910 1140 1499 2026 1916 1704 1419 1392 631 518 408 82 168 290 277 358 786 88 412 212 388 846 972 814 331 274 192 124 286 283 373 562 600 597 563 423 403 405
978 1044 927 826 913 1029 1434 1726 1794 1601 1794 1597 1458 922 1061 964 803 628 354 416 445 412 586 489 465 31 351 692 640 199 142 74 0 0 47 137 205 463 523 555 494 428 324
810 928 1039 1006 989 993 1500 1763 1503 1484 1842 1688 1208 1201 1017 1078 946 675 760 721 417 398 544 470 5 6 485 1154 847 625 139 0 0 0 0 0 3 64 171 227 273 278 245
1028 968 990 1067 1305 1341 1569 1400 1082 1700 1370 1313 1055 896 1427 1286 1180 1145 779 831 476 597 416 578 604 183 774 1233 844 370 361 0 0 0 0 0 0 0 0 0 6 11 9
1138 1022 964 1110 1187 1129 1240 1468 1050 913 821 1067 875 1091 1281 1197 1456 1388 1283 1004 720 321 387 428 225 296 240 819 865 774 706 0 0 56 80 0 0 0 0 0 0 0 0
1033 1028 956 938 1304 1359 1178 1064 919 851 616 882 742 786 1093 956 828 1269 1371 1173 806 704 524 291 264 255 339 378 758 875 677 37 0 0 0 0 25 9 3 0 0 0 0
761 748 686 733 879 992 1192 733 897 685 650 507 805 851 797 972 961 875 942 1146 947 728 586 637 739 252 372 383 457 506 206 44 0 0 0 0 0 0 0 0 0 0 0
909 876 802 742 896 924 1006 665 650 1175 590 574 551 733 759 802 858 407 628 523 703 576 681 583 613 482 508 583 418 83 0 0 1 1 0 1 0 0 0 0 0 0 0
676 812 826 836 1049 966 1010 1067 989 973 577 806 1016 870 758 882 514 489 348 340 591 702 449 545 739 825 514 180 55 2 2 3 0 0 0 0 1 1 1 1 0 0 0
749 690 659 519 952 991 1011 1185 1047 691 849 1117 1236 1210 735 619 779 802 365 338 368 294 195 132 145 564 838 217 114 62 26 1 0 0 0 0 0 0 0 0 1 0 0
817 695 549 493 584 753 456 477 525 553 638 710 853 1027 962 650 121 268 399 481 364 214 222 41 25 175 398 259 192 142 105 5 4 0 0 0 0 0 0 0 0 1 1
1012 856 746 1033 671 32 0 0 0 248 380 653 747 892 776 313 26 14 13 1 2 50 136 110 38 195 75 55 141 101 33 22 95 0 0 0 0 0 0 0 0 0 0
536 491 379 255 33 0 0 0 0 221 146 155 144 463 584 144 159 120 0 0 0 0 0 53 252 27 78 1 0 67 15 23 72 1 1 3 0 0 0 0 0 0 0
59 56 35 10 0 0 0 0 0 22 10 0 0 5 67 65 1 57 0 0 0 0 0 0 0 0 0 0 0 2 31 1 2 2 2 5 0 0 0 0 0 0 0
5 3 4 4 1 0 0 0 0 0 0 0 0 0 0 0 0 0 0 0 0 0 0 0 0 0 0 0 0 2 5 11 3 3 0 2 3 3 0 0 0 0 0
0 1 1 1 1 0 0 0 0 0 0 0 0 0 0 0 0 0 0 0 0 0 0 0 0 0 0 0 0 0 0 3 0 0 2 1 1 0 3 2 0 0 0
CIN
-102 -121 -144 -100 -103 -92 -80 -107 -136 -137 -150 -180 -130 -79 -92 -71 -152 -190 -179 -168 -76 -51 -31 -30 -32 -15 -4 -2 -4 -5 -7 -5 -5 -7 -2 -0 -0 -0 -0 -0 -0 -1 -3
-85 -111 -122 -112 -112 -94 -80 -117 -133 -144 -155 -182 -122 -119 -224 -200 -179 -209 -109 -43 -62 -39 -29 -21 -28 -15 -3 -2 -14 -12 -9 -9 -9 -8 -5 -3 -4 -0 -0 -0 -0 -1 -5
-131 -143 -133 -124 -122 -122 -114 -122 -141 -155 -203 -164 -123 -143 -181 -143 -177 -166 -76 -48 -24 -23 -23 -13 -23 -4 -21 -28 -36 -44 -22 -0 -5 -10 -4 -11 -11 -7 -5 -1 -0 -0 -1
-210 -147 -151 -143 -221 -140 -93 -88 -107 -100 -129 -162 -171 -170 -171 -164 -154 -113 -75 -58 -34 -8 -8 -15 -21 -5 -23 -23 -35 -24 -8 -11 -2 -6 -4 -13 -6 -6 -3 -1 -0 -1 -4
-175 -79 -99 -177 -203 -120 -95 -83 -92 -151 -127 -190 -186 -152 -179 -226 -190 -150 -88 -62 -41 -23 -1 -28 -32 -32 -9 -5 -12 -13 -1 -2 -9 -2 -1 -6 -6 -3 -11 -2 -2 -2 -2
-0 -161 -176 -188 -169 -178 -84 -80 -104 -151 -165 -152 -185 -170 -224 -175 -183 -176 -172 -62 -30 -28 -12 -1 -0 -9 -29 -9 -5 -2 -1 -6 -6 -2 -5 -4 -4 -2 -5 -7 -2 -2 -5
-101 -136 -0 -222 -171 -180 -81 -74 -101 -116 -126 -224 -211 -208 -195 -132 -139 -113 -98 -81 -44 -47 -27 -8 -3 -1 -7 -27 -16 -4 -2 -12 -2 -1 -1 -7 -1 -4 -8 -7 -2 -4 -6
-77 -97 -128 -163 -238 -96 -65 -64 -90 -103 -119 -145 -75 -162 -52 -77 -81 -80 -83 -90 -69 -41 -52 -19 -11 -4 -10 -6 -9 -11 -8 -7 -3 -1 -0 -12 -1 -3 -9 -1 -1 -5 -8
-70 -133 -134 -181 -250 -130 -49 -41 -43 -52 -29 -96 -138 -51 -28 -25 -37 -116 -129 -108 -137 -28 -89 -107 -35 -1 -5 -8 -6 -15 -46 -32 -2 -0 -0 -12 -8 -1 -3 -5 -7 -7 -10
-49 -92 -134 -188 -134 -85 -44 -27 -18 -29 -35 -25 -81 -150 -104 -75 -19 -48 -106 -119 -109 -56 -79 -77 -83 -41 -8 -15 -38 -40 -25 -35 -26 -3 -0 -0 -3 -2 -3 -11 -9 -10 -12
-37 -64 -93 -86 -62 -55 -51 -36 -17 -18 -24 -23 -23 -48 -83 -100 -158 -54 -13 -47 -70 -36 -91 -54 -75 -73 -37 -19 -19 -54 -43 -51 -76 -29 -16 -1 -0 -0 -0 -0 -14 -13 -11
-31 -41 -54 -57 -53 -47 -30 -22 -19 -22 -15 -23 -22 -36 -26 -25 -21 -33 -19 -32 -39 -61 -45 -54 -56 -80 -81 -44 -38 -88 -85 -96 -0 -0 -62 -27 -4 -1 -0 -0 -0 -0 -4
-20 -26 -35 -41 -36 -43 -28 -22 -12 -17 -10 -11 -17 -15 -30 -30 -43 -47 -25 -20 -18 -59 -53 -60 -92 -88 -65 -17 -20 -37 -87 -0 -0 -0 -0 -0 -12 -31 -7 -3 -3 -6 -14
-19 -31 -31 -30 -26 -26 -21 -25 -13 -7 -16 -10 -10 -18 -16 -18 -26 -30 -26 -22 -13 -17 -45 -45 -64 -94 -37 -10 -23 -69 -49 -0 -0 -0 -0 -0 -0 -0 -0 -0 -10 -7 -9
-34 -40 -40 -35 -26 -24 -25 -22 -10 -11 -13 -13 -13 -11 -11 -12 -15 -16 -28 -30 -14 -7 -7 -40 -50 -90 -78 -22 -20 -13 -15 -0 -0 -120 -81 -0 -0 -0 -0 -0 -0 -0 -0
-37 -44 -46 -46 -37 -39 -28 -23 -15 -11 -11 -12 -14 -22 -14 -9 -11 -12 -11 -16 -24 -9 -3 -32 -54 -79 -68 -61 -28 -8 -11 -102 -0 -0 -0 -0 -37 -14 -7 -0 -0 -0 -0
-42 -38 -40 -46 -37 -36 -27 -13 -11 -13 -16 -13 -11 -16 -19 -15 -9 -8 -7 -10 -9 -11 -0 -21 -30 -80 -64 -66 -48 -29 -53 -98 -0 -0 -0 -0 -0 -0 -0 -0 -0 -0 -0
-30 -37 -39 -38 -37 -32 -28 -17 -13 -9 -12 -12 -7 -11 -9 -6 -13 -21 -9 -11 -13 -16 -10 -6 -18 -37 -35 -36 -43 -92 -0 -0 -0 -0 -0 -0 -0 -0 -0 -0 -0 -0 -0
-28 -32 -37 -30 -23 -29 -28 -22 -19 -15 -16 -14 -10 -11 -8 -13 -15 -15 -15 -15 -14 -14 -17 -9 -3 -13 -31 -72 -98 -0 -0 -0 -0 -0 -0 -0 -0 -0 -0 -0 -0 -0 -0
-19 -21 -25 -20 -25 -22 -21 -16 -21 -21 -11 -8 -8 -10 -8 -12 -17 -13 -15 -13 -15 -17 -21 -20 -18 -9 -5 -55 -77 -85 -30 -0 -0 -0 -0 -0 -0 -0 -0 -0 -0 -0 -0
-21 -17 -17 -16 -13 -15 -57 -48 -38 -34 -29 -29 -25 -17 -15 -46 -102 -63 -25 -19 -26 -28 -17 -31 -29 -15 -7 -28 -36 -58 -58 -0 -0 -0 -0 -0 -0 -0 -0 -0 -0 -0 -0
-16 -13 -15 -7 -23 -101 -0 -0 -0 -59 -51 -23 -18 -18 -15 -66 -141 -172 -189 -45 -197 -90 -19 -19 -39 -13 -46 -60 -30 -52 -96 -94 -29 -0 -0 -0 -0 -0 -0 -0 -0 -0 -0
-42 -47 -56 -59 -113 -0 -0 -0 -0 -55 -74 -72 -80 -30 -14 -75 -54 -66 -109 -0 -0 -0 -0 -78 -6 -51 -48 -4 -0 -32 -79 -75 -23 -0 -0 -0 -0 -0 -0 -0 -0 -0 -0
-131 -123 -102 -84 -0 -0 -0 -0 -0 -99 -125 -0 -0 -70 -94 -97 -94 -84 -0 -0 -0 -0 -0 -0 -0 -0 -0 -0 -0 -43 -50 -0 -0 -0 -0 -0 -0 -0 -0 -0 -0 -0 -0
-173 -33 -0 -0 -0 -0 -0 -0 -0 -0 -0 -0 -0 -0 -0 -0 -0 -0 -0 -0 -0 -0 -0 -0 -0 -0 -0 -0 -0 -44 -74 -64 -70 -0 -0 -0 -0 -0 -0 -0 -0 -0 -0
-0 -0 -0 -0 -0 -0 -0 -0 -0 -0 -0 -0 -0 -0 -0 -0 -0 -0 -0 -0 -0 -0 -0 -0 -0 -0 -0 -0 -0 -0 -0 -53 -0 -0 -0 -0 -0 -0 -0 -0 -0 -0 -0
Wind_Speed
16 19 20 18 16 15 17 17 17 15 15 12 12 11 13 13 9 14 15 13 11 10 10 9 8 7 12 14 15 16 16 15 17 19 20 20 22 27 31 32 32 31 30
18 18 18 16 16 15 15 16 15 14 13 11 9 15 17 12 10 12 14 13 12 10 10 11 9 9 11 12 17 18 18 18 18 18 21 21 22 26 30 32 32 31 29
18 17 17 16 15 15 15 15 14 13 13 11 14 17 19 12 8 11 12 13 12 11 12 15 15 9 8 9 14 16 17 18 18 20 21 22 24 26 29 31 31 30 27
16 16 16 17 16 15 15 16 14 13 13 13 14 16 21 21 10 10 12 12 12 12 13 15 16 13 7 8 11 15 15 16 18 19 21 22 24 25 29 31 31 30 27
15 16 15 16 17 16 15 15 13 12 11 13 14 17 20 18 17 11 11 11 12 12 13 16 16 13 7 8 8 10 9 11 15 17 18 20 21 23 28 31 31 30 27
19 19 20 18 18 17 16 15 14 13 13 15 18 16 14 17 15 12 10 11 11 12 14 15 15 18 9 8 8 8 8 11 12 14 16 18 19 21 26 28 31 29 26
18 18 19 20 16 13 17 16 14 12 11 13 17 13 15 15 13 12 11 11 12 15 16 14 14 14 15 12 10 7 6 6 7 10 12 14 17 20 22 27 29 27 25
16 17 20 17 14 16 17 17 15 14 13 12 11 14 12 14 13 12 15 15 14 14 15 16 13 15 15 14 14 12 7 6 6 8 9 10 14 16 17 19 25 27 22
15 17 18 18 19 15 15 17 16 15 13 14 12 10 11 13 13 15 16 14 12 13 15 14 14 16 15 15 15 17 12 7 6 6 7 9 11 14 14 12 13 10 15
15 17 13 12 10 18 16 16 16 15 14 12 15 13 11 12 13 14 13 13 13 14 17 17 15 16 16 16 16 14 14 10 5 5 5 7 12 14 13 5 6 9 8
16 16 14 14 13 18 18 17 16 16 16 15 15 12 11 11 11 12 14 14 14 15 16 14 14 17 17 17 17 18 16 13 9 5 7 6 7 8 7 10 12 11 10
10 14 18 16 15 18 18 17 17 17 17 17 13 18 11 11 11 11 11 11 11 13 13 13 13 16 17 17 17 19 19 18 15 9 6 7 7 7 8 8 8 10 9
8 10 15 20 20 21 20 20 19 18 18 13 13 18 16 11 12 11 10 9 10 13 15 14 16 17 17 16 18 18 19 20 19 17 12 10 8 8 8 8 9 10 6
8 10 14 22 22 21 21 20 19 17 17 15 17 18 16 12 12 12 11 10 12 14 15 16 16 16 16 16 16 17 18 18 19 19 19 15 13 13 12 10 10 9 10
11 12 22 21 23 20 20 22 20 20 18 17 17 18 18 14 12 13 11 11 11 11 15 15 15 15 15 15 16 15 15 16 16 16 17 17 16 15 17 17 11 12 16
14 15 23 22 20 20 18 4 23 22 16 18 18 19 20 19 20 14 12 17 11 12 11 15 15 15 14 14 15 15 15 15 15 14 14 15 14 7 13 7 12 12 16
20 19 17 19 20 20 23 17 19 20 20 20 19 21 21 20 13 19 15 14 14 13 15 16 15 14 15 14 14 14 14 14 15 16 14 14 13 12 12 11 11 11 9
20 19 21 22 20 18 20 19 20 20 22 23 22 22 21 21 18 17 14 14 15 15 18 16 14 14 15 12 13 13 15 15 15 17 17 17 17 17 18 19 21 18 11
22 19 16 16 16 17 17 19 21 23 23 24 24 23 23 21 22 17 14 13 15 16 17 17 15 14 15 12 13 14 14 15 14 15 16 16 17 18 19 19 19 20 15
23 24 24 21 19 20 20 20 22 24 24 24 23 24 22 22 23 22 19 17 16 15 15 17 19 17 16 14 13 14 14 15 13 14 16 16 16 19 20 20 20 20 18
19 22 22 20 19 18 19 20 22 23 24 26 26 24 22 19 21 19 18 16 18 20 19 17 19 21 18 17 16 16 16 15 15 14 15 17 17 18 21 21 20 20 19
19 21 20 19 18 18 20 21 21 22 23 24 25 24 18 16 17 16 15 17 20 21 20 19 20 19 19 19 18 17 16 16 17 14 15 17 17 19 20 19 20 20 20
18 18 17 16 16 18 19 19 19 19 20 21 21 19 17 17 17 17 19 21 21 20 21 19 21 19 19 19 19 17 18 19 19 17 16 18 16 18 19 20 20 20 19
16 16 16 16 16 18 19 17 15 17 18 19 18 19 18 18 20 17 17 19 19 19 19 17 16 18 19 21 18 18 18 17 18 19 20 19 16 18 18 20 20 20 19
13 14 12 12 13 16 18 17 17 16 18 19 18 19 19 20 20 14 15 15 16 16 15 15 16 17 19 21 19 17 18 17 20 21 21 19 19 19 19 19 20 19 19
10 11 13 15 16 18 21 21 19 19 18 19 20 21 23 22 19 14 14 13 13 13 13 16 18 19 20 22 23 21 20 19 20 20 21 20 19 18 20 19 18 17 18
Wind_Direction
211 178 162 178 184 164 129 106 94 91 94 103 92 104 137 170 216 195 188 188 205 214 181 172 152 180 240 248 249 248 231 215 194 188 184 188 195 200 205 205 203 201 200
201 187 198 201 196 185 151 116 106 93 95 111 107 100 124 151 184 183 172 165 181 192 155 133 141 233 234 239 271 269 264 253 246 202 190 200 196 203 203 198 193 190 186
213 219 211 232 227 211 166 129 119 99 100 115 102 96 97 142 235 206 197 186 181 151 128 93 83 142 199 214 262 278 270 261 251 241 205 211 206 217 193 190 186 181 175
243 251 240 231 248 218 156 113 125 107 99 111 109 96 66 20 161 213 187 163 137 125 114 95 80 98 191 224 242 280 270 268 265 250 217 220 220 214 197 188 181 177 172
271 268 271 260 243 218 181 115 141 123 127 114 109 93 70 80 61 155 159 162 146 139 123 89 90 104 164 176 207 247 230 249 263 256 243 229 226 215 202 188 181 177 168
203 255 251 264 259 205 212 247 158 133 131 101 80 94 99 89 105 141 191 180 167 152 122 112 100 78 142 162 168 186 222 280 271 252 254 239 226 225 211 203 183 172 164
206 253 243 217 299 330 248 216 168 158 170 115 82 122 102 108 129 127 149 222 166 128 115 118 116 112 106 129 143 201 215 225 208 239 256 245 229 221 218 203 173 166 160
242 216 183 162 301 267 236 219 188 198 220 148 130 112 121 112 115 121 106 113 127 133 114 114 124 120 115 117 120 132 176 184 189 191 228 245 229 222 226 225 207 168 146
283 252 198 158 220 286 274 234 209 230 215 120 139 147 140 117 117 99 95 124 143 127 114 113 125 125 118 116 118 107 139 171 186 190 212 223 220 219 227 245 242 128 116
275 243 314 300 285 219 230 246 241 242 220 209 82 135 156 141 120 111 132 129 136 135 119 104 118 125 121 117 119 130 131 161 248 245 224 205 193 203 227 4 34 75 78
270 264 284 286 300 235 241 235 253 253 231 241 268 142 157 151 145 140 117 123 137 133 124 130 125 118 120 119 116 116 128 145 174 260 295 284 273 265 302 52 72 77 81
329 285 256 270 281 243 247 250 256 261 253 343 238 1 204 208 172 158 148 143 161 134 145 150 145 121 120 119 122 104 113 122 142 176 245 295 298 310 355 13 32 60 67
354 331 285 246 239 222 234 251 246 259 287 64 65 328 6 169 185 176 183 191 165 133 123 134 111 109 118 123 115 120 105 99 110 131 165 191 235 275 306 352 18 46 353
344 339 306 224 218 220 247 257 285 319 321 250 325 326 22 163 167 180 189 188 138 122 126 102 93 101 124 127 111 122 106 102 93 96 108 159 179 188 222 280 334 356 307
312 315 212 196 224 281 289 275 290 303 312 320 331 334 335 44 149 198 146 106 180 196 89 91 85 89 99 101 109 130 115 100 97 95 67 96 149 170 163 172 324 315 265
301 302 249 266 294 291 300 100 277 271 324 318 325 321 309 321 271 19 276 357 99 190 153 48 57 55 77 77 87 103 89 86 77 85 84 77 90 125 280 92 86 315 293
284 286 294 292 293 293 255 306 308 305 303 314 321 317 315 313 4 307 7 27 34 49 25 19 26 36 32 53 56 58 65 63 33 6 28 37 52 45 52 44 16 16 32
288 292 287 283 294 304 292 302 303 310 301 295 307 314 312 309 328 336 356 8 11 13 343 1 16 16 5 36 40 33 28 13 8 360 353 342 337 345 328 314 303 315 349
280 289 298 304 310 311 311 309 308 302 301 297 301 302 304 310 306 332 350 354 352 352 354 346 356 7 353 13 1 356 6 6 6 12 12 1 357 359 352 343 334 322 328
277 279 284 295 300 301 301 307 305 305 308 304 305 299 308 309 309 313 323 334 341 352 2 357 337 339 341 352 356 350 353 352 355 356 353 355 354 354 351 346 341 340 337
287 284 287 294 300 305 303 307 306 304 304 297 297 305 310 319 314 325 328 343 334 322 341 353 337 312 325 333 340 345 344 348 338 340 344 342 342 347 341 340 344 349 349
286 286 290 294 298 301 302 304 306 306 309 306 302 303 320 326 333 337 344 344 327 324 334 344 337 314 320 324 332 337 337 342 337 337 335 334 338 337 339 342 346 347 348
288 289 292 297 300 301 304 307 309 310 311 312 314 314 319 325 327 330 331 328 333 318 322 334 316 323 325 329 331 337 328 327 327 336 333 330 335 336 337 340 344 347 346
285 287 291 294 298 300 301 307 315 315 314 315 320 315 319 318 319 327 336 337 337 330 330 339 334 330 331 327 330 332 333 334 332 332 328 327 335 335 339 342 345 349 352
286 287 300 299 302 302 301 304 311 315 318 313 316 320 315 315 321 330 333 338 341 343 340 350 354 349 344 338 337 338 334 330 326 327 326 327 329 330 332 336 339 346 350
293 304 300 295 303 302 300 297 303 309 314 305 307 310 312 313 321 326 327 328 332 337 337 334 337 346 345 341 342 341 333 325 325 326 330 330 332 333 330 336 339 344 344